| time (UTC) | temp F | wind direction | speed MPH | gust MPH | rain 1hr in | rain 24hr in | rain mn in | humidity % | barometer mb |
| 20260831134458 | 49 | 126 | 0.0 | 0.0 | 0.00 | 0.00 | 0.00 | 88 | 1018.8 |
| 20260831133957 | 50 | 135 | 0.0 | 3.0 | 0.00 | 0.00 | 0.00 | 88 | 1018.5 |
| 20260831133452 | 50 | 144 | 0.0 | 0.0 | 0.00 | 0.00 | 0.00 | 88 | 1018.6 |
| 20260831132947 | 50 | 164 | 0.0 | 0.0 | 0.00 | 0.00 | 0.00 | 88 | 1018.6 |
| 20260831132443 | 50 | 146 | 0.0 | 0.0 | 0.00 | 0.00 | 0.00 | 88 | 1018.7 |
| 20260831131942 | 50 | 145 | 0.0 | 0.0 | 0.00 | 0.00 | 0.00 | 88 | 1018.7 |
| 20260831131437 | 50 | 155 | 0.0 | 0.0 | 0.00 | 0.00 | 0.00 | 88 | 1018.5 |
| 20260831130933 | 50 | 179 | 0.0 | 0.0 | 0.00 | 0.00 | 0.00 | 88 | 1018.6 |
| 20260831130428 | 50 | 157 | 0.0 | 0.0 | 0.00 | 0.00 | 0.00 | 88 | 1018.8 |
| 20260831125928 | 50 | 141 | 0.0 | 0.0 | 0.00 | 0.00 | 0.00 | 88 | 1018.5 |
| 20260831125427 | 50 | 129 | 0.0 | 0.0 | 0.00 | 0.00 | 0.00 | 88 | 1018.8 |
| 20260831124923 | 50 | 172 | 0.0 | 0.0 | 0.00 | 0.00 | 0.00 | 88 | 1018.8 |
| 20260831124419 | 50 | 186 | 0.0 | 0.0 | 0.00 | 0.00 | 0.00 | 88 | 1018.6 |
| 20260831123915 | 50 | 187 | 0.0 | 0.0 | 0.00 | 0.00 | 0.00 | 88 | 1018.8 |
| 20260831123413 | 50 | 149 | 0.0 | 0.0 | 0.00 | 0.00 | 0.00 | 88 | 1018.6 |
| 20260831122908 | 50 | 152 | 0.0 | 0.0 | 0.00 | 0.00 | 0.00 | 88 | 1018.7 |
| 20260831122404 | 50 | 145 | 0.0 | 0.0 | 0.00 | 0.00 | 0.00 | 88 | 1018.9 |
| 20260831121859 | 50 | 131 | 1.0 | 3.0 | 0.00 | 0.00 | 0.00 | 88 | 1019.0 |
| 20260831121354 | 50 | 144 | 0.0 | 0.0 | 0.00 | 0.00 | 0.00 | 88 | 1018.9 |
| 20260831120850 | 50 | 181 | 0.0 | 0.0 | 0.00 | 0.00 | 0.00 | 88 | 1018.9 |
| 20260831120344 | 50 | 161 | 0.0 | 0.0 | 0.00 | 0.00 | 0.00 | 88 | 1018.9 |
| 20260831115839 | 50 | 178 | 0.0 | 0.0 | 0.00 | 0.00 | 0.00 | 88 | 1018.9 |
| 20260831115336 | 50 | 176 | 0.0 | 0.0 | 0.00 | 0.00 | 0.00 | 88 | 1019.1 |
| 20260831114835 | 50 | 180 | 0.0 | 0.0 | 0.00 | 0.00 | 0.00 | 88 | 1019.0 |
| 20260831114334 | 50 | 189 | 0.0 | 0.0 | 0.00 | 0.00 | 0.00 | 87 | 1019.2 |
| 20260831113830 | 50 | 196 | 0.0 | 0.0 | 0.00 | 0.00 | 0.00 | 87 | 1019.1 |
| 20260831113330 | 50 | 191 | 0.0 | 0.0 | 0.00 | 0.00 | 0.00 | 86 | 1019.2 |
| 20260831112824 | 51 | 184 | 0.0 | 0.0 | 0.00 | 0.00 | 0.00 | 86 | 1019.2 |
| 20260831112319 | 51 | 179 | 0.0 | 0.0 | 0.00 | 0.00 | 0.00 | 86 | 1019.3 |
| 20260831111814 | 51 | 184 | 0.0 | 0.0 | 0.00 | 0.00 | 0.00 | 86 | 1019.2 |
| 20260831111311 | 51 | 183 | 0.0 | 0.0 | 0.00 | 0.00 | 0.00 | 86 | 1019.0 |
| 20260831110806 | 51 | 181 | 0.0 | 0.0 | 0.00 | 0.00 | 0.00 | 86 | 1019.5 |
| 20260831110301 | 51 | 149 | 0.0 | 0.0 | 0.00 | 0.00 | 0.00 | 86 | 1019.4 |
| 20260831105759 | 51 | 160 | 0.0 | 0.0 | 0.00 | 0.00 | 0.00 | 86 | 1019.4 |
| 20260831105255 | 51 | 179 | 0.0 | 0.0 | 0.00 | 0.00 | 0.00 | 86 | 1019.4 |
| 20260831104755 | 51 | 187 | 0.0 | 0.0 | 0.00 | 0.00 | 0.00 | 86 | 1019.6 |
| 20260831104252 | 51 | 174 | 0.0 | 0.0 | 0.00 | 0.00 | 0.00 | 86 | 1019.5 |
| 20260831103752 | 51 | 157 | 0.0 | 0.0 | 0.00 | 0.00 | 0.00 | 86 | 1019.6 |
| 20260831103248 | 51 | 177 | 0.0 | 0.0 | 0.00 | 0.00 | 0.00 | 85 | 1019.7 |
| 20260831102748 | 51 | 174 | 0.0 | 0.0 | 0.00 | 0.00 | 0.00 | 85 | 1019.5 |
| 20260831102242 | 51 | 204 | 0.0 | 0.0 | 0.00 | 0.00 | 0.00 | 85 | 1019.6 |
| 20260831101738 | 52 | 181 | 0.0 | 0.0 | 0.00 | 0.00 | 0.00 | 85 | 1019.5 |
| 20260831101233 | 52 | 186 | 0.0 | 0.0 | 0.00 | 0.00 | 0.00 | 84 | 1019.8 |
| 20260831100730 | 52 | 195 | 0.0 | 0.0 | 0.00 | 0.00 | 0.00 | 84 | 1019.8 |
| 20260831100225 | 52 | 163 | 0.0 | 0.0 | 0.00 | 0.00 | 0.00 | 84 | 1019.8 |
| 20260831095724 | 52 | 179 | 0.0 | 0.0 | 0.00 | 0.00 | 0.00 | 84 | 1019.8 |
| 20260831095219 | 52 | 168 | 0.0 | 0.0 | 0.00 | 0.00 | 0.00 | 84 | 1020.0 |
| 20260831094714 | 52 | 164 | 0.0 | 0.0 | 0.00 | 0.00 | 0.00 | 84 | 1019.9 |
| 20260831094210 | 53 | 179 | 0.0 | 0.0 | 0.00 | 0.00 | 0.00 | 84 | 1019.9 |
| 20260831093706 | 53 | 182 | 0.0 | 0.0 | 0.00 | 0.00 | 0.00 | 83 | 1020.0 |
| 20260831093201 | 53 | 167 | 0.0 | 0.0 | 0.00 | 0.00 | 0.00 | 83 | 1020.2 |
| 20260831092657 | 53 | 168 | 0.0 | 0.0 | 0.00 | 0.00 | 0.00 | 83 | 1020.2 |
| 20260831092153 | 53 | 149 | 0.0 | 0.0 | 0.00 | 0.00 | 0.00 | 84 | 1020.2 |
| 20260831091652 | 53 | 181 | 0.0 | 0.0 | 0.00 | 0.00 | 0.00 | 83 | 1020.3 |
| 20260831091148 | 53 | 167 | 0.0 | 0.0 | 0.00 | 0.00 | 0.00 | 83 | 1020.3 |
| 20260831090643 | 53 | 161 | 0.0 | 0.0 | 0.00 | 0.00 | 0.00 | 83 | 1020.3 |
| 20260831090139 | 53 | 166 | 0.0 | 0.0 | 0.00 | 0.00 | 0.00 | 84 | 1020.3 |
| 20260831085634 | 53 | 178 | 0.0 | 0.0 | 0.00 | 0.00 | 0.00 | 84 | 1020.4 |
| 20260831085129 | 53 | 182 | 0.0 | 0.0 | 0.00 | 0.00 | 0.00 | 84 | 1020.3 |
| 20260831084625 | 53 | 190 | 0.0 | 0.0 | 0.00 | 0.00 | 0.00 | 83 | 1020.3 |
| 20260831084121 | 53 | 184 | 0.0 | 0.0 | 0.00 | 0.00 | 0.00 | 83 | 1020.5 |
| 20260831083617 | 53 | 185 | 0.0 | 0.0 | 0.00 | 0.00 | 0.00 | 83 | 1020.4 |
| 20260831083112 | 53 | 187 | 0.0 | 0.0 | 0.00 | 0.00 | 0.00 | 83 | 1020.3 |
| 20260831082610 | 53 | 168 | 0.0 | 0.0 | 0.00 | 0.00 | 0.00 | 82 | 1020.5 |
| 20260831082106 | 54 | 188 | 0.0 | 0.0 | 0.00 | 0.00 | 0.00 | 82 | 1020.6 |
| 20260831081602 | 54 | 181 | 0.0 | 0.0 | 0.00 | 0.00 | 0.00 | 82 | 1020.5 |
| 20260831081057 | 54 | 187 | 0.0 | 0.0 | 0.00 | 0.00 | 0.00 | 82 | 1020.5 |
| 20260831080552 | 54 | 165 | 0.0 | 0.0 | 0.00 | 0.00 | 0.00 | 82 | 1020.7 |
| 20260831080047 | 54 | 184 | 0.0 | 0.0 | 0.00 | 0.00 | 0.00 | 82 | 1020.6 |
| 20260831075542 | 54 | 166 | 0.0 | 0.0 | 0.00 | 0.00 | 0.00 | 82 | 1020.6 |
| 20260831075038 | 54 | 179 | 0.0 | 0.0 | 0.00 | 0.00 | 0.00 | 81 | 1020.7 |
| 20260831074537 | 54 | 184 | 0.0 | 0.0 | 0.00 | 0.00 | 0.00 | 81 | 1020.6 |
| 20260831074037 | 54 | 179 | 0.0 | 0.0 | 0.00 | 0.00 | 0.00 | 81 | 1020.5 |
| 20260831073532 | 55 | 181 | 0.0 | 0.0 | 0.00 | 0.00 | 0.00 | 81 | 1020.8 |
| 20260831073032 | 54 | 190 | 0.0 | 0.0 | 0.00 | 0.00 | 0.00 | 81 | 1020.9 |
| 20260831072527 | 55 | 188 | 0.0 | 0.0 | 0.00 | 0.00 | 0.00 | 80 | 1020.8 |
| 20260831072024 | 55 | 182 | 0.0 | 0.0 | 0.00 | 0.00 | 0.00 | 80 | 1020.8 |
| 20260831071522 | 55 | 178 | 0.0 | 0.0 | 0.00 | 0.00 | 0.00 | 80 | 1020.9 |
| 20260831071018 | 55 | 178 | 0.0 | 0.0 | 0.00 | 0.00 | 0.00 | 80 | 1021.0 |
| 20260831070516 | 55 | 175 | 0.0 | 0.0 | 0.00 | 0.00 | 0.00 | 80 | 1021.2 |
| 20260831070011 | 55 | 190 | 0.0 | 0.0 | 0.00 | 0.00 | 0.00 | 79 | 1021.1 |
| 20260831065509 | 55 | 187 | 0.0 | 0.0 | 0.00 | 0.00 | 0.00 | 79 | 1021.3 |
| 20260831065004 | 56 | 181 | 0.0 | 0.0 | 0.00 | 0.00 | 0.00 | 79 | 1021.1 |
| 20260831064459 | 56 | 178 | 0.0 | 0.0 | 0.00 | 0.00 | 0.00 | 78 | 1021.3 |
| 20260831063954 | 56 | 135 | 0.0 | 0.0 | 0.00 | 0.00 | 0.00 | 78 | 1021.2 |
| 20260831063450 | 56 | 188 | 0.0 | 0.0 | 0.00 | 0.00 | 0.00 | 78 | 1021.3 |
| 20260831062943 | 56 | 184 | 0.0 | 0.0 | 0.00 | 0.00 | 0.00 | 77 | 1021.3 |
| 20260831062439 | 57 | 186 | 0.0 | 0.0 | 0.00 | 0.00 | 0.00 | 77 | 1021.5 |
| 20260831061938 | 57 | 160 | 0.0 | 0.0 | 0.00 | 0.00 | 0.00 | 77 | 1021.5 |
| 20260831061437 | 57 | 175 | 0.0 | 0.0 | 0.00 | 0.00 | 0.00 | 76 | 1021.6 |
| 20260831060934 | 57 | 168 | 0.0 | 0.0 | 0.00 | 0.00 | 0.00 | 76 | 1021.5 |
| 20260831060433 | 58 | 179 | 0.0 | 0.0 | 0.00 | 0.00 | 0.00 | 75 | 1021.4 |
| 20260831055933 | 58 | 166 | 0.0 | 0.0 | 0.00 | 0.00 | 0.00 | 74 | 1021.5 |
| 20260831055428 | 58 | 124 | 0.0 | 0.0 | 0.00 | 0.00 | 0.00 | 74 | 1021.6 |
| 20260831054923 | 59 | 175 | 0.0 | 0.0 | 0.00 | 0.00 | 0.00 | 73 | 1021.6 |
| 20260831054418 | 59 | 165 | 0.0 | 0.0 | 0.00 | 0.00 | 0.00 | 72 | 1021.7 |
| 20260831053918 | 59 | 170 | 0.0 | 0.0 | 0.00 | 0.00 | 0.00 | 71 | 1021.7 |
| 20260831053415 | 60 | 179 | 0.0 | 0.0 | 0.00 | 0.00 | 0.00 | 70 | 1022.0 |
| 20260831052911 | 59 | 179 | 0.0 | 0.0 | 0.00 | 0.00 | 0.00 | 70 | 1022.1 |
| 20260831052410 | 59 | 182 | 0.0 | 0.0 | 0.00 | 0.00 | 0.00 | 71 | 1022.0 |
| 20260831051908 | 59 | 195 | 0.0 | 0.0 | 0.00 | 0.00 | 0.00 | 71 | 1022.0 |
| 20260831051407 | 59 | 193 | 0.0 | 0.0 | 0.00 | 0.00 | 0.00 | 70 | 1021.9 |
| 20260831050902 | 59 | 188 | 0.0 | 0.0 | 0.00 | 0.00 | 0.00 | 70 | 1022.1 |
| 20260831050356 | 60 | 193 | 0.0 | 0.0 | 0.00 | 0.00 | 0.00 | 69 | 1022.1 |
| 20260831045850 | 60 | 201 | 0.0 | 0.0 | 0.00 | 0.00 | 0.00 | 69 | 1021.8 |
| 20260831045349 | 60 | 199 | 0.0 | 0.0 | 0.00 | 0.00 | 0.00 | 68 | 1022.1 |
| 20260831044844 | 60 | 165 | 0.0 | 0.0 | 0.00 | 0.00 | 0.00 | 68 | 1022.3 |
| 20260831044339 | 60 | 188 | 0.0 | 0.0 | 0.00 | 0.00 | 0.00 | 68 | 1022.1 |
| 20260831043836 | 60 | 176 | 0.0 | 0.0 | 0.00 | 0.00 | 0.00 | 68 | 1022.2 |
| 20260831043335 | 60 | 178 | 0.0 | 0.0 | 0.00 | 0.00 | 0.00 | 68 | 1022.1 |
| 20260831042830 | 60 | 184 | 0.0 | 0.0 | 0.00 | 0.00 | 0.00 | 67 | 1022.1 |
| 20260831042329 | 60 | 201 | 0.0 | 0.0 | 0.00 | 0.00 | 0.00 | 67 | 1022.1 |
| 20260831041825 | 61 | 201 | 0.0 | 0.0 | 0.00 | 0.00 | 0.00 | 66 | 1022.3 |
| 20260831041324 | 61 | 200 | 0.0 | 0.0 | 0.00 | 0.00 | 0.00 | 64 | 1022.2 |
| 20260831040819 | 62 | 200 | 0.0 | 0.0 | 0.00 | 0.00 | 0.00 | 64 | 1022.1 |
| 20260831040318 | 62 | 172 | 0.0 | 0.0 | 0.00 | 0.00 | 0.00 | 63 | 1022.1 |
| 20260831035817 | 63 | 146 | 0.0 | 0.0 | 0.00 | 0.00 | 0.00 | 63 | 1022.3 |
| 20260831035315 | 63 | 148 | 0.0 | 0.0 | 0.00 | 0.00 | 0.00 | 62 | 1022.1 |
| 20260831034810 | 63 | 212 | 0.0 | 0.0 | 0.00 | 0.00 | 0.00 | 62 | 1022.3 |
| 20260831034306 | 63 | 202 | 0.0 | 0.0 | 0.00 | 0.00 | 0.00 | 61 | 1022.1 |
| 20260831033801 | 63 | 211 | 0.0 | 0.0 | 0.00 | 0.00 | 0.00 | 60 | 1022.2 |
| 20260831033301 | 64 | 209 | 0.0 | 0.0 | 0.00 | 0.00 | 0.00 | 59 | 1022.1 |
| 20260831032756 | 64 | 209 | 0.0 | 0.0 | 0.00 | 0.00 | 0.00 | 59 | 1022.1 |
| 20260831032250 | 64 | 206 | 0.0 | 0.0 | 0.00 | 0.00 | 0.00 | 58 | 1021.9 |
| 20260831031746 | 64 | 210 | 0.0 | 0.0 | 0.00 | 0.00 | 0.00 | 57 | 1022.0 |
| 20260831031245 | 64 | 211 | 0.0 | 0.0 | 0.00 | 0.00 | 0.00 | 56 | 1021.9 |
| 20260831030740 | 65 | 213 | 0.0 | 0.0 | 0.00 | 0.00 | 0.00 | 55 | 1021.8 |
| 20260831030238 | 65 | 215 | 0.0 | 0.0 | 0.00 | 0.00 | 0.00 | 55 | 1021.9 |
| 20260831025737 | 65 | 215 | 0.0 | 0.0 | 0.00 | 0.00 | 0.00 | 54 | 1021.9 |
| 20260831025232 | 65 | 214 | 0.0 | 0.0 | 0.00 | 0.00 | 0.00 | 53 | 1022.0 |
| 20260831024729 | 66 | 214 | 0.0 | 0.0 | 0.00 | 0.00 | 0.00 | 53 | 1022.1 |
| 20260831024227 | 66 | 210 | 0.0 | 0.0 | 0.00 | 0.00 | 0.00 | 52 | 1022.0 |
| 20260831023726 | 67 | 209 | 0.0 | 0.0 | 0.00 | 0.00 | 0.00 | 51 | 1022.0 |
| 20260831023225 | 67 | 220 | 0.0 | 0.0 | 0.00 | 0.00 | 0.00 | 50 | 1022.2 |
| 20260831022720 | 68 | 216 | 0.0 | 7.0 | 0.00 | 0.00 | 0.00 | 50 | 1022.1 |
| 20260831022215 | 68 | 299 | 0.0 | 7.0 | 0.00 | 0.00 | 0.00 | 50 | 1022.1 |
| 20260831021715 | 68 | 291 | 2.0 | 7.0 | 0.00 | 0.00 | 0.00 | 49 | 1022.1 |
| 20260831021209 | 68 | 269 | 5.0 | 7.0 | 0.00 | 0.00 | 0.00 | 49 | 1022.2 |
| 20260831020706 | 68 | 223 | 0.0 | 0.0 | 0.00 | 0.00 | 0.00 | 50 | 1022.1 |
| 20260831020205 | 69 | 236 | 0.0 | 3.0 | 0.00 | 0.00 | 0.00 | 50 | 1022.3 |
| 20260831015700 | 69 | 293 | 0.0 | 3.0 | 0.00 | 0.00 | 0.00 | 50 | 1022.3 |
| 20260831015155 | 69 | 264 | 0.0 | 3.0 | 0.00 | 0.00 | 0.00 | 49 | 1022.4 |
| 20260831014650 | 69 | 307 | 0.0 | 5.0 | 0.00 | 0.00 | 0.00 | 49 | 1022.4 |
| 20260831014145 | 70 | 270 | 0.0 | 5.0 | 0.00 | 0.00 | 0.00 | 48 | 1022.5 |
| 20260831013642 | 70 | 271 | 0.0 | 3.0 | 0.00 | 0.00 | 0.00 | 48 | 1022.4 |
| 20260831013141 | 71 | 270 | 1.0 | 5.0 | 0.00 | 0.00 | 0.00 | 46 | 1022.5 |
| 20260831012636 | 72 | 273 | 1.0 | 3.0 | 0.00 | 0.00 | 0.00 | 45 | 1022.7 |
| 20260831012131 | 73 | 264 | 2.0 | 3.0 | 0.00 | 0.00 | 0.00 | 43 | 1022.4 |
| 20260831011630 | 74 | 259 | 0.0 | 3.0 | 0.00 | 0.00 | 0.00 | 43 | 1022.6 |
| 20260831011126 | 76 | 229 | 0.0 | 0.0 | 0.00 | 0.00 | 0.00 | 42 | 1022.5 |
| 20260831010622 | 75 | 211 | 0.0 | 3.0 | 0.00 | 0.00 | 0.00 | 44 | 1022.4 |
| 20260831010117 | 74 | 224 | 0.0 | 3.0 | 0.00 | 0.00 | 0.00 | 45 | 1022.6 |
| 20260831005617 | 74 | 290 | 5.0 | 10.0 | 0.00 | 0.00 | 0.00 | 45 | 1022.6 |
| 20260831005112 | 74 | 302 | 1.0 | 5.0 | 0.00 | 0.00 | 0.00 | 45 | 1022.7 |
| 20260831004608 | 75 | 223 | 0.0 | 0.0 | 0.00 | 0.00 | 0.00 | 44 | 1022.8 |
| 20260831004103 | 75 | 228 | 0.0 | 3.0 | 0.00 | 0.00 | 0.00 | 44 | 1022.6 |
| 20260831003559 | 75 | 211 | 0.0 | 3.0 | 0.00 | 0.00 | 0.00 | 43 | 1022.7 |
| 20260831003055 | 75 | 232 | 0.0 | 5.0 | 0.00 | 0.00 | 0.00 | 44 | 1022.8 |
| 20260831002553 | 74 | 220 | 0.0 | 7.0 | 0.00 | 0.00 | 0.00 | 46 | 1022.8 |
| 20260831002049 | 73 | 164 | 0.0 | 0.0 | 0.00 | 0.00 | 0.00 | 45 | 1022.6 |
| 20260831001544 | 74 | 86 | 0.0 | 0.0 | 0.00 | 0.00 | 0.00 | 45 | 1022.8 |
| 20260831001041 | 73 | 251 | 0.0 | 0.0 | 0.00 | 0.00 | 0.00 | 45 | 1023.0 |
| 20260831000537 | 72 | 258 | 0.0 | 0.0 | 0.00 | 0.00 | 0.00 | 46 | 1023.0 |
| 20260831000036 | 72 | 102 | 0.0 | 0.0 | 0.00 | 0.00 | 0.00 | 46 | 1023.1 |
| 20260830235535 | 72 | 157 | 0.0 | 5.0 | 0.00 | 0.00 | 0.00 | 46 | 1023.0 |
| 20260830235030 | 73 | 138 | 0.0 | 7.0 | 0.00 | 0.00 | 0.00 | 45 | 1023.0 |
| 20260830234525 | 74 | 234 | 0.0 | 5.0 | 0.00 | 0.00 | 0.00 | 44 | 1023.1 |
| 20260830234021 | 72 | 256 | 0.0 | 5.0 | 0.00 | 0.00 | 0.00 | 48 | 1023.3 |
| 20260830233516 | 71 | 295 | 4.0 | 10.0 | 0.00 | 0.00 | 0.00 | 47 | 1023.1 |
| 20260830233012 | 72 | 297 | 3.0 | 7.0 | 0.00 | 0.00 | 0.00 | 46 | 1023.4 |
| 20260830232508 | 73 | 207 | 0.0 | 0.0 | 0.00 | 0.00 | 0.00 | 46 | 1023.4 |
| 20260830232003 | 73 | 267 | 2.0 | 3.0 | 0.00 | 0.00 | 0.00 | 46 | 1023.3 |
| 20260830231459 | 73 | 208 | 0.0 | 5.0 | 0.00 | 0.00 | 0.00 | 46 | 1023.4 |
| 20260830230958 | 71 | 287 | 2.0 | 7.0 | 0.00 | 0.00 | 0.00 | 48 | 1023.3 |
| 20260830230454 | 72 | 247 | 0.0 | 0.0 | 0.00 | 0.00 | 0.00 | 48 | 1023.4 |
| 20260830225952 | 71 | 276 | 3.0 | 7.0 | 0.00 | 0.00 | 0.00 | 48 | 1023.4 |
| 20260830225449 | 71 | 180 | 0.0 | 7.0 | 0.00 | 0.00 | 0.00 | 48 | 1023.3 |
| 20260830224948 | 72 | 236 | 0.0 | 5.0 | 0.00 | 0.00 | 0.00 | 48 | 1023.6 |
| 20260830224447 | 71 | 225 | 0.0 | 5.0 | 0.00 | 0.00 | 0.00 | 50 | 1023.5 |
| 20260830223944 | 71 | 246 | 0.0 | 5.0 | 0.00 | 0.00 | 0.00 | 50 | 1023.6 |
| 20260830223440 | 71 | 304 | 3.0 | 5.0 | 0.00 | 0.00 | 0.00 | 50 | 1023.6 |
| 20260830222939 | 70 | 291 | 10.0 | 15.0 | 0.00 | 0.00 | 0.00 | 50 | 1023.5 |
| 20260830222434 | 71 | 269 | 4.0 | 7.0 | 0.00 | 0.00 | 0.00 | 49 | 1023.8 |
| 20260830221930 | 71 | 235 | 1.0 | 7.0 | 0.00 | 0.00 | 0.00 | 51 | 1024.0 |
| 20260830221426 | 71 | 295 | 7.0 | 7.0 | 0.00 | 0.00 | 0.00 | 50 | 1024.0 |
| 20260830220921 | 70 | 287 | 7.0 | 10.0 | 0.00 | 0.00 | 0.00 | 51 | 1023.6 |
| 20260830220416 | 71 | 263 | 1.0 | 3.0 | 0.00 | 0.00 | 0.00 | 50 | 1023.7 |
| 20260830215913 | 71 | 296 | 4.0 | 7.0 | 0.00 | 0.00 | 0.00 | 50 | 1023.8 |
| 20260830215408 | 70 | 290 | 3.0 | 7.0 | 0.00 | 0.00 | 0.00 | 52 | 1024.1 |
| 20260830214903 | 70 | 266 | 3.0 | 7.0 | 0.00 | 0.00 | 0.00 | 51 | 1023.9 |
| 20260830214358 | 71 | 236 | 0.0 | 3.0 | 0.00 | 0.00 | 0.00 | 49 | 1023.9 |
| 20260830213853 | 70 | 285 | 5.0 | 10.0 | 0.00 | 0.00 | 0.00 | 51 | 1024.3 |
| 20260830213348 | 70 | 232 | 0.0 | 5.0 | 0.00 | 0.00 | 0.00 | 51 | 1024.2 |
| 20260830212844 | 69 | 237 | 0.0 | 3.0 | 0.00 | 0.00 | 0.00 | 53 | 1024.2 |
| 20260830212340 | 68 | 271 | 1.0 | 5.0 | 0.00 | 0.00 | 0.00 | 54 | 1024.5 |
| 20260830211839 | 68 | 279 | 6.0 | 7.0 | 0.00 | 0.00 | 0.00 | 54 | 1024.3 |
| 20260830211333 | 68 | 281 | 1.0 | 5.0 | 0.00 | 0.00 | 0.00 | 55 | 1024.4 |
| 20260830210829 | 68 | 196 | 0.0 | 0.0 | 0.00 | 0.00 | 0.00 | 54 | 1024.5 |
| 20260830210328 | 68 | 268 | 1.0 | 3.0 | 0.00 | 0.00 | 0.00 | 53 | 1024.3 |
| 20260830205826 | 69 | 242 | 0.0 | 0.0 | 0.00 | 0.00 | 0.00 | 53 | 1024.4 |
| 20260830205325 | 68 | 117 | 0.0 | 0.0 | 0.00 | 0.00 | 0.00 | 54 | 1024.7 |
| 20260830204821 | 68 | 282 | 1.0 | 7.0 | 0.00 | 0.00 | 0.00 | 54 | 1024.5 |
| 20260830204319 | 69 | 287 | 5.0 | 5.0 | 0.00 | 0.00 | 0.00 | 54 | 1024.6 |
| 20260830203815 | 69 | 210 | 0.0 | 0.0 | 0.00 | 0.00 | 0.00 | 54 | 1024.7 |
| 20260830203312 | 69 | 289 | 0.0 | 3.0 | 0.00 | 0.00 | 0.00 | 54 | 1024.8 |
| 20260830202811 | 69 | 240 | 0.0 | 5.0 | 0.00 | 0.00 | 0.00 | 53 | 1024.8 |
| 20260830202306 | 70 | 297 | 3.0 | 5.0 | 0.00 | 0.00 | 0.00 | 52 | 1024.8 |
| 20260830201801 | 69 | 138 | 0.0 | 3.0 | 0.00 | 0.00 | 0.00 | 53 | 1024.7 |
| 20260830201255 | 70 | 237 | 0.0 | 0.0 | 0.00 | 0.00 | 0.00 | 53 | 1024.8 |
| 20260830200751 | 68 | 226 | 0.0 | 0.0 | 0.00 | 0.00 | 0.00 | 55 | 1024.9 |
| 20260830200250 | 67 | 299 | 4.0 | 7.0 | 0.00 | 0.00 | 0.00 | 57 | 1025.0 |
| 20260830195746 | 69 | 254 | 1.0 | 3.0 | 0.00 | 0.00 | 0.00 | 53 | 1025.1 |
| 20260830195244 | 69 | 143 | 0.0 | 3.0 | 0.00 | 0.00 | 0.00 | 52 | 1025.0 |
| 20260830194742 | 71 | 201 | 0.0 | 3.0 | 0.00 | 0.00 | 0.00 | 50 | 1025.2 |
| 20260830194237 | 70 | 261 | 1.0 | 5.0 | 0.00 | 0.00 | 0.00 | 52 | 1024.9 |
| 20260830193731 | 69 | 145 | 0.0 | 3.0 | 0.00 | 0.00 | 0.00 | 53 | 1025.1 |
| 20260830193226 | 69 | 212 | 0.0 | 7.0 | 0.00 | 0.00 | 0.00 | 54 | 1025.0 |
| 20260830192722 | 69 | 244 | 0.0 | 3.0 | 0.00 | 0.00 | 0.00 | 56 | 1025.1 |
| 20260830192217 | 68 | 210 | 0.0 | 0.0 | 0.00 | 0.00 | 0.00 | 55 | 1025.1 |
| 20260830191713 | 68 | 206 | 0.0 | 0.0 | 0.00 | 0.00 | 0.00 | 57 | 1025.2 |
| 20260830191207 | 67 | 148 | 0.0 | 0.0 | 0.00 | 0.00 | 0.00 | 56 | 1025.0 |
| 20260830190702 | 67 | 220 | 0.0 | 0.0 | 0.00 | 0.00 | 0.00 | 56 | 1024.9 |
| 20260830190157 | 67 | 239 | 0.0 | 0.0 | 0.00 | 0.00 | 0.00 | 56 | 1025.0 |
| 20260830185655 | 68 | 253 | 0.0 | 0.0 | 0.00 | 0.00 | 0.00 | 56 | 1025.1 |
| 20260830185151 | 68 | 155 | 2.0 | 7.0 | 0.00 | 0.00 | 0.00 | 54 | 1025.2 |
| 20260830184650 | 69 | 205 | 0.0 | 3.0 | 0.00 | 0.00 | 0.00 | 54 | 1025.3 |
| 20260830184150 | 69 | 214 | 0.0 | 3.0 | 0.00 | 0.00 | 0.00 | 54 | 1025.3 |
| 20260830183645 | 67 | 127 | 3.0 | 5.0 | 0.00 | 0.00 | 0.00 | 55 | 1025.2 |
| 20260830183141 | 69 | 235 | 0.0 | 3.0 | 0.00 | 0.00 | 0.00 | 54 | 1025.3 |
| 20260830182636 | 69 | 202 | 0.0 | 5.0 | 0.00 | 0.00 | 0.00 | 55 | 1025.4 |
| 20260830182132 | 67 | 224 | 0.0 | 3.0 | 0.00 | 0.00 | 0.00 | 59 | 1025.3 |
| 20260830181628 | 68 | 282 | 2.0 | 5.0 | 0.00 | 0.00 | 0.00 | 54 | 1025.4 |
| 20260830181127 | 69 | 258 | 0.0 | 3.0 | 0.00 | 0.00 | 0.00 | 54 | 1025.4 |
| 20260830180627 | 69 | 198 | 0.0 | 0.0 | 0.00 | 0.00 | 0.00 | 55 | 1025.3 |
| 20260830180127 | 68 | 134 | 0.0 | 0.0 | 0.00 | 0.00 | 0.00 | 57 | 1025.2 |
| 20260830175625 | 66 | 90 | 0.0 | 3.0 | 0.00 | 0.00 | 0.00 | 57 | 1025.3 |
| 20260830175121 | 66 | 203 | 0.0 | 3.0 | 0.00 | 0.00 | 0.00 | 59 | 1025.2 |
| 20260830174616 | 65 | 158 | 0.0 | 7.0 | 0.00 | 0.00 | 0.00 | 60 | 1025.5 |
| 20260830174112 | 65 | 166 | 0.0 | 5.0 | 0.00 | 0.00 | 0.00 | 60 | 1025.4 |
| 20260830173607 | 64 | 149 | 2.0 | 5.0 | 0.00 | 0.00 | 0.00 | 61 | 1025.3 |
| 20260830173102 | 64 | 159 | 1.0 | 7.0 | 0.00 | 0.00 | 0.00 | 61 | 1025.2 |
| 20260830172559 | 64 | 131 | 1.0 | 7.0 | 0.00 | 0.00 | 0.00 | 60 | 1025.2 |
| 20260830172055 | 66 | 147 | 0.0 | 3.0 | 0.00 | 0.00 | 0.00 | 59 | 1025.5 |
| 20260830171550 | 64 | 164 | 0.0 | 5.0 | 0.00 | 0.00 | 0.00 | 61 | 1025.2 |
| 20260830171045 | 63 | 158 | 0.0 | 5.0 | 0.00 | 0.00 | 0.00 | 62 | 1025.2 |
| 20260830170544 | 63 | 140 | 3.0 | 7.0 | 0.00 | 0.00 | 0.00 | 63 | 1025.4 |
| 20260830170044 | 64 | 128 | 0.0 | 3.0 | 0.00 | 0.00 | 0.00 | 61 | 1025.2 |
| 20260830165539 | 64 | 201 | 0.0 | 3.0 | 0.00 | 0.00 | 0.00 | 61 | 1025.2 |
| 20260830165035 | 64 | 138 | 0.0 | 3.0 | 0.00 | 0.00 | 0.00 | 62 | 1025.3 |
| 20260830164531 | 63 | 223 | 0.0 | 3.0 | 0.00 | 0.00 | 0.00 | 63 | 1025.1 |
| 20260830164027 | 62 | 168 | 0.0 | 0.0 | 0.00 | 0.00 | 0.00 | 66 | 1025.0 |
| 20260830163523 | 61 | 144 | 3.0 | 5.0 | 0.00 | 0.00 | 0.00 | 66 | 1025.2 |
| 20260830163022 | 62 | 142 | 2.0 | 5.0 | 0.00 | 0.00 | 0.00 | 65 | 1025.1 |
| 20260830162519 | 63 | 204 | 0.0 | 3.0 | 0.00 | 0.00 | 0.00 | 64 | 1025.4 |
| 20260830162019 | 63 | 132 | 0.0 | 5.0 | 0.00 | 0.00 | 0.00 | 63 | 1025.1 |
| 20260830161514 | 63 | 149 | 0.0 | 5.0 | 0.00 | 0.00 | 0.00 | 63 | 1025.2 |
| 20260830161008 | 62 | 153 | 0.0 | 0.0 | 0.00 | 0.00 | 0.00 | 66 | 1025.4 |
| 20260830160504 | 61 | 231 | 0.0 | 0.0 | 0.00 | 0.00 | 0.00 | 67 | 1025.6 |
| 20260830155959 | 61 | 207 | 0.0 | 0.0 | 0.00 | 0.00 | 0.00 | 67 | 1025.5 |
| 20260830155455 | 61 | 149 | 0.0 | 0.0 | 0.00 | 0.00 | 0.00 | 66 | 1025.3 |
| 20260830154950 | 61 | 192 | 0.0 | 5.0 | 0.00 | 0.00 | 0.00 | 66 | 1025.3 |
| 20260830154446 | 60 | 188 | 0.0 | 0.0 | 0.00 | 0.00 | 0.00 | 67 | 1025.3 |
| 20260830153942 | 59 | 112 | 0.0 | 5.0 | 0.00 | 0.00 | 0.00 | 69 | 1025.5 |
| 20260830153438 | 60 | 133 | 0.0 | 0.0 | 0.00 | 0.00 | 0.00 | 67 | 1025.5 |
| 20260830152937 | 59 | 191 | 0.0 | 0.0 | 0.00 | 0.00 | 0.00 | 70 | 1025.2 |
| 20260830152433 | 58 | 157 | 0.0 | 0.0 | 0.00 | 0.00 | 0.00 | 70 | 1025.2 |
| 20260830151931 | 58 | 149 | 0.0 | 0.0 | 0.00 | 0.00 | 0.00 | 71 | 1025.2 |
| 20260830151426 | 58 | 151 | 0.0 | 0.0 | 0.00 | 0.00 | 0.00 | 72 | 1025.4 |
| 20260830150921 | 57 | 135 | 0.0 | 0.0 | 0.00 | 0.00 | 0.00 | 72 | 1025.3 |
| 20260830150420 | 57 | 137 | 0.0 | 0.0 | 0.00 | 0.00 | 0.00 | 73 | 1025.2 |
| 20260830145914 | 57 | 170 | 0.0 | 0.0 | 0.00 | 0.00 | 0.00 | 73 | 1025.3 |
| 20260830145409 | 56 | 161 | 0.0 | 0.0 | 0.00 | 0.00 | 0.00 | 74 | 1025.3 |
| 20260830144904 | 56 | 133 | 0.0 | 0.0 | 0.00 | 0.00 | 0.00 | 75 | 1025.3 |
| 20260830144401 | 55 | 136 | 0.0 | 0.0 | 0.00 | 0.00 | 0.00 | 76 | 1025.2 |
| 20260830143855 | 55 | 149 | 0.0 | 0.0 | 0.00 | 0.00 | 0.00 | 76 | 1025.1 |
| 20260830143350 | 55 | 156 | 0.0 | 3.0 | 0.00 | 0.00 | 0.00 | 77 | 1025.2 |
| 20260830142850 | 55 | 135 | 0.0 | 5.0 | 0.00 | 0.00 | 0.00 | 77 | 1025.2 |
| 20260830142344 | 54 | 134 | 2.0 | 5.0 | 0.00 | 0.00 | 0.00 | 77 | 1024.8 |
| 20260830141840 | 54 | 143 | 2.0 | 3.0 | 0.00 | 0.00 | 0.00 | 77 | 1024.9 |
| 20260830141335 | 54 | 127 | 3.0 | 5.0 | 0.00 | 0.00 | 0.00 | 77 | 1025.0 |
| 20260830140830 | 54 | 138 | 0.0 | 5.0 | 0.00 | 0.00 | 0.00 | 78 | 1025.0 |
| 20260830140325 | 54 | 152 | 3.0 | 5.0 | 0.00 | 0.00 | 0.00 | 78 | 1024.8 |
| 20260830135819 | 54 | 133 | 0.0 | 0.0 | 0.00 | 0.00 | 0.00 | 78 | 1024.7 |
| 20260830135315 | 54 | 126 | 0.0 | 0.0 | 0.00 | 0.00 | 0.00 | 78 | 1024.8 |